Orbital Elements at Epoch 2459200.5 (2020-Dec-17.0) TDB
Reference: JPL 18 (heliocentric ecliptic J2000)
Element | Value | Uncertainty (1-sigma) | Units |
e | .09818090457681253 | 4.9854e-08 | |
a | 2.322417585243076 | 1.1292e-08 | au |
q | 2.094400525918814 | 1.159e-07 | au |
i | 1.011531428461431 | 6.156e-06 | deg |
node | 215.8406014908554 | 0.00026516 | deg |
peri | 222.1840270101373 | 0.00026729 | deg |
M | 89.31252878028505 | 3.0227e-05 | deg |
tp | 2458879.785364395551 (2020-Jan-31.28536440) | 0.00010879 | TDB |
period | 1292.73317410634 3.54 | 9.4281e-06 2.581e-08 | d yr |
n | .2784797413811758 | 2.031e-09 | deg/d |
Q | 2.550434644567337 | 1.24e-08 | au |
|
| | Orbit Determination Parameters
Additional Information
|